FW4376 Weather Reports


time (UTC)temp
C
wind
direction
speed
KPH
gust
KPH
rain 1hr
cm
rain 24hr
cm
rain mn
cm
humidity
%
barometer
mb
20260905123020 25 118 0.0 0.0 0.00 0.00 0.00 82 1013.4
20260905121521 25 146 0.0 0.0 0.00 0.00 0.00 82 1013.3
20260905120019 25 166 0.0 1.6 0.00 0.00 0.00 82 1013.2
20260905114519 25 228 0.0 1.6 0.00 0.00 0.00 82 1013.2
20260905113018 25 245 0.0 1.6 0.00 0.00 0.00 81 1013.2
20260905111525 25 245 0.0 1.6 0.00 0.00 0.00 81 1013.1
20260905110017 25 245 0.0 1.6 0.00 0.00 0.00 81 1013.0
20260905104516 25 245 0.0 0.0 0.00 0.00 0.00 81 1013.0
20260905103016 26 245 0.0 1.6 0.00 0.00 0.00 80 1012.9
20260905101513 26 245 0.0 3.2 0.00 0.00 0.00 80 1013.0
20260905100018 26 243 0.0 1.6 0.00 0.00 0.00 79 1013.0
20260905094514 26 245 0.0 1.6 0.00 0.00 0.00 79 1012.9
20260905093010 26 239 0.0 3.2 0.00 0.00 0.00 78 1012.7
20260905091510 26 211 0.0 0.0 0.00 0.00 0.00 78 1012.6
20260905090008 26 216 0.0 0.0 0.00 0.00 0.00 78 1012.6
20260905084506 26 236 0.0 0.0 0.00 0.00 0.00 77 1012.5
20260905083004 27 231 0.0 1.6 0.00 0.00 0.00 77 1012.4
20260905081503 27 200 0.0 1.6 0.00 0.00 0.00 76 1012.4
20260905080003 27 256 0.0 3.2 0.00 0.00 0.00 76 1012.4
20260905074605 27 233 0.0 1.6 0.00 0.00 0.00 76 1012.5
20260905074503 27 238 0.0 1.6 0.00 0.00 0.00 76 1012.5
20260905073105 27 225 0.0 3.2 0.00 0.00 0.00 75 1012.6
20260905071558 27 245 0.0 1.6 0.00 0.00 0.00 74 1012.8
20260905070055 27 243 0.0 1.6 0.00 0.00 0.00 74 1013.0
20260905064554 27 240 0.0 1.6 0.00 0.00 0.00 73 1013.2
20260905063054 28 245 0.0 1.6 0.00 0.00 0.00 72 1013.3
20260905061551 28 238 0.0 3.2 0.00 0.00 0.00 71 1013.3
20260905060050 28 286 0.0 3.2 0.00 0.00 0.00 71 1013.0
20260905054549 28 236 0.0 4.8 0.00 0.00 0.00 71 1012.8
20260905053110 28 39 0.0 6.4 0.00 0.00 0.00 70 1012.7
20260905051543 28 245 0.0 1.6 0.00 0.00 0.00 70 1012.5
20260905050041 28 194 0.0 4.8 0.00 0.00 0.00 70 1012.7
20260905044541 28 215 0.0 3.2 0.00 0.00 0.00 69 1012.8
20260905043040 29 131 0.0 3.2 0.00 0.00 0.00 68 1012.6
20260905041544 29 130 0.0 3.2 0.00 0.00 0.00 68 1012.6
20260905040039 30 109 0.0 4.8 0.00 0.00 0.00 67 1012.7
20260905034539 30 108 0.0 3.2 0.00 0.00 0.00 66 1012.9
20260905033049 30 192 1.6 4.8 0.00 0.00 0.00 65 1012.9
20260905031543 31 140 1.6 4.8 0.00 0.00 0.00 64 1012.8
20260905030040 31 240 0.0 3.2 0.00 0.00 0.00 64 1012.7
20260905024537 31 139 0.0 4.8 0.00 0.00 0.00 63 1012.6
20260905023040 31 104 0.0 3.2 0.00 0.00 0.00 63 1012.3
20260905021538 31 113 0.0 4.8 0.00 0.00 0.00 62 1012.1
20260905020036 31 104 0.0 4.8 0.00 0.00 0.00 61 1012.0
20260905014536 32 111 0.0 3.2 0.00 0.00 0.00 61 1011.7
20260905013034 32 113 0.0 3.2 0.00 0.00 0.00 60 1011.5
20260905011535 32 185 0.0 3.2 0.00 0.00 0.00 59 1011.4
20260905010033 33 123 1.6 4.8 0.00 0.00 0.00 57 1011.1
20260905004535 33 120 0.0 8.0 0.00 0.00 0.00 56 1011.0
20260905003033 33 136 1.6 6.4 0.00 0.00 0.00 55 1011.1
20260905001532 33 164 1.6 9.7 0.00 0.00 0.00 55 1010.8
20260905000030 34 173 1.6 6.4 0.00 0.00 0.00 55 1010.8
20260904234529 35 157 3.2 12.9 0.00 0.00 0.00 55 1010.9
20260904233029 35 177 4.8 12.9 0.00 0.00 0.00 54 1010.7
20260904231535 36 107 3.2 9.7 0.00 0.00 0.00 53 1010.7
20260904230026 37 268 1.6 6.4 0.00 0.00 0.00 49 1010.7
20260904224525 37 153 0.0 8.0 0.00 0.00 0.00 46 1010.8
20260904223028 37 277 1.6 9.7 0.00 0.00 0.00 45 1010.9
20260904221522 37 133 1.6 11.3 0.00 0.00 0.00 46 1011.0
20260904220020 36 120 1.6 8.0 0.00 0.00 0.00 46 1010.9
20260904214531 37 148 1.6 8.0 0.00 0.00 0.00 46 1011.2
20260904213030 37 231 1.6 8.0 0.00 0.00 0.00 47 1011.3
20260904211521 36 183 1.6 11.3 0.00 0.00 0.00 49 1011.5
20260904210024 35 127 1.6 9.7 0.00 0.00 0.00 49 1011.7
20260904204521 36 115 4.8 8.0 0.00 0.00 0.00 49 1011.8
20260904203008 37 77 3.2 9.7 0.00 0.00 0.00 50 1012.1
20260904201504 36 176 3.2 8.0 0.00 0.00 0.00 51 1012.2
20260904200001 36 105 4.8 11.3 0.00 0.00 0.00 52 1012.4
20260904194608 36 103 4.8 11.3 0.00 0.00 0.00 51 1012.6
20260904193055 35 131 0.0 8.0 0.00 0.00 0.00 53 1012.7
20260904191556 35 124 3.2 8.0 0.00 0.00 0.00 52 1012.8
20260904190052 35 191 3.2 9.7 0.00 0.00 0.00 53 1013.0
20260904184555 35 66 3.2 12.9 0.00 0.00 0.00 54 1013.2
20260904183050 35 139 4.8 12.9 0.00 0.00 0.00 52 1013.5
20260904181548 35 217 3.2 12.9 0.00 0.00 0.00 54 1013.7
20260904180047 35 225 4.8 11.3 0.00 0.00 0.00 56 1013.8
20260904174547 34 97 1.6 11.3 0.00 0.00 0.00 57 1014.2
20260904173101 34 250 4.8 11.3 0.00 0.00 0.00 54 1014.3
20260904171545 33 146 1.6 9.7 0.00 0.00 0.00 56 1014.4
20260904170039 33 105 1.6 12.9 0.00 0.00 0.00 60 1014.4
20260904164535 33 239 0.0 9.7 0.00 0.00 0.00 62 1014.5
20260904163034 32 105 1.6 11.3 0.00 0.00 0.00 64 1014.6
20260904161531 32 214 3.2 14.5 0.00 0.00 0.00 64 1014.7
20260904160027 31 104 3.2 11.3 0.00 0.00 0.00 69 1014.7
20260904154525 31 251 1.6 8.0 0.00 0.00 0.00 72 1014.6
20260904153023 31 255 3.2 9.7 0.00 0.00 0.00 72 1014.6
20260904151519 30 255 1.6 9.7 0.00 0.00 0.00 76 1014.5
20260904150027 30 253 3.2 11.3 0.00 0.00 0.00 77 1014.5
20260904144512 29 239 3.2 11.3 0.00 0.00 0.00 80 1014.6
20260904143013 28 219 4.8 9.7 0.00 0.00 0.00 82 1014.7
20260904141505 28 251 3.2 9.7 0.00 0.00 0.00 84 1014.6
20260904140004 27 157 3.2 8.0 0.00 0.00 0.00 86 1014.5
20260904134609 26 121 1.6 8.0 0.00 0.00 0.00 89 1014.3
20260904133054 26 167 1.6 9.7 0.00 0.00 0.00 91 1014.2
20260904131551 25 95 1.6 6.4 0.00 0.00 0.00 92 1014.0
20260904130049 25 210 1.6 6.4 0.00 0.00 0.00 93 1014.0
20260904124548 24 255 0.0 4.8 0.00 0.71 0.00 93 1013.9